Location: Chomutov
(50.4500°N, 13.4333°E)
Time: 18:29:45
(UTC+02:00)

FO-29 - Pass Details

Date: 29 September 2021
Orbit: 800 x 1321 km, 98.6° (Epoch: 23 October)

Event Time Altitude Azimuth Distance (km) Brightness Sun altitude
Exits shadow 20:59:55 31° 135° (SE) 2,118 10.7 -21.3°
Maximum altitude 21:03:51 62° 67° (ENE) 1,466 10.1 -21.9°
Drops below altitude 10° 21:11:34 10° 350° (N) 3,340 12.7 -23.0°
Sets 21:14:17 0° 347° (NNW) 4,285 13.4 -23.4°
